Showing default

JY1SAT, 43803

Orbit data source: Space-Track

JY1SAT, 43803 is a payload satellite owned by JUST (JO) in SSO that was launched on Mon, 03 Dec 2018 UTC via an FALCON 9 launch vehicle from the Air Force Western Test Range (AFWTR). Payload-class satellites include a variety of spacecraft equipped with specific instruments for various scientific and technological missions. These include communications satellites like Starlink; space stations such as the ISS; scientific satellites like the Hubble; Earth observation satellites from companies like Planet Labs, Umbra, and HawkEye 360; GPS; miniature CubeSats for education and research; and military/defense satellites.

Loading next visibility...
Identifier
43803, 2018-099AX
Orbit
SSO
Country
Flag of JOJO / JOR
Related business
Manufacturer
JUST
Mission
Operational Amateur Technology
Bus & Motor
CUBESAT 1U, Unknown motor
Mass
1 kg wet, 1 kg dry
Launch date (UTC)
2018-12-03 (8 years ago)
Launch vehicle
FALCON 9
Launch site
Air Force Western Test Range (AFWTR)
Object type
Payload
Rocket body
Debris
Shape & HBR
Box, 0.1 m
Radar Cross Section
0.015 m², Medium (>0.1 m² and < 1m²)

Expand to show TLE details & history
Last TLE update: 2 days ago

TLE from 2 days ago
0 JY1SAT
1 43803U 18099AX  26171.42320771  .00014139  00000-0  43536-3 0  9990
2 43803  97.4124 234.2689 0004531 246.7819 113.2947 15.33738605414121
Epoch: 2026-06-20T10:09Z
TLE epoch observation values (Epoch: 2026-06-20T10:09:25.146Z)
Latitude
0.00003°
Longitude
173.27608°
Altitude
469.006 km
Speed
7.631 km/s
True Right ascension
15h 37m 04s
True Declination
0° 00' 00"
Sunlit
Object was in full shadow at epoch
Visualization orbit readout
Latitude
Unknown
Longitude
Unknown
Altitude
Unknown
Speed
Unknown
Apparent Right ascension
Unknown
Apparent Declination
Unknown
Sunlit
N/A
Visualization observer readout
Local Sidereal Time
21:42:22
Azimuth
Unknown
Elevation
Unknown
Doppler factor
Unknown
Orbital elements
Apogee altitude
464.717 km
Perigee altitude
458.518 km
Semi-major axis
6,839.755 km
Eccentricity
0.00045
Inclination
97.4124°
RAAN
234.2689°
Arg. of periapsis
246.7819°
True anomaly
113.34238°
Mean anomaly
113.2947°
Eccentric anomaly
113.31854°
Mean motion
3.83692 °/min
Orbital period
93.83 mins
BSTAR
0.00043536
Loading maneuver chart data...
Computing Atmospheric mass density...
Loading historical data...
Loading historical data...
Loading historical data...
Loading historical data...
Loading historical data...
Loading historical data...
Loading historical data...

Documentation

Showing up to 5 results
|